Date String (YYYY-MM-DD hh:mm:ss) UTC,Instrument flags,absolute air pressure of the measurement (hPa),sample flow rate (lpm),inlet stack bypass flow (lpm),air temperature of the measurement (°C),ambient temperature measured by the external sensor (°C),aerosol sample conditioner tube jacket temperature (°C),OPC LED temperature (°C),internal box temperature (°C),relative humidity of the measurement (%),span deviation,mass concentration of particles derived from Lorenz-Mie calculation of OPC scattering (μg/m³),mass concentration of particles derived from Lorenz-Mie calculation of OPC scattering (μg/m³),mass concentration of particles derived from Lorenz-Mie calculation of OPC scattering (μg/m³)
DateTimeUTC,F1_M11,P_M11,Q1_M11,Q2_M11,T1_M11,T2_M11,T3_M11,T4_M11,T5_M11,U1_M11,ZSPAN_M11,X0_M11,X2_M11,X1_M11
2023-07-24 18:00:00,SystemResetWarning,0835.4,5.00,000.00,028.4,024.8,000.0,036.6,029.9,29.8,0000.0,0008.40,0004.85,0004.38
2023-07-24 18:01:00,SystemResetWarning,0835.4,5.01,000.00,028.4,025.2,000.0,036.6,029.8,28.5,0000.0,0008.45,0004.87,0004.38
2023-07-24 18:02:00,SystemResetWarning,0835.3,5.00,000.00,028.4,025.6,000.0,036.7,029.8,29.4,0000.0,0008.55,0004.87,0004.37
2023-07-24 18:03:00,SystemResetWarning,0835.4,5.00,000.00,028.4,026.0,000.0,036.7,029.9,30.6,0000.0,0009.15,0004.93,0004.38
2023-07-24 18:04:00,SystemResetWarning,0835.4,5.00,000.00,028.4,026.5,000.0,036.7,030.0,31.0,0000.0,0009.41,0004.99,0004.43
2023-07-24 18:05:00,SystemResetWarning,0835.4,5.00,000.00,028.5,026.8,000.0,036.7,030.1,28.7,0000.0,0009.49,0005.03,0004.48
2023-07-24 18:06:00,SystemResetWarning,0835.5,5.00,000.00,028.5,027.0,000.0,036.8,030.2,29.6,0000.0,0009.18,0005.09,0004.54
2023-07-24 18:07:00,SystemResetWarning,0835.5,4.98,000.00,028.5,026.0,000.0,036.7,030.1,32.1,0000.0,0009.79,0005.15,0004.59
2023-07-24 18:08:00,SystemResetWarning,0835.4,5.01,000.00,028.5,025.0,000.0,036.6,030.0,32.7,0000.0,0010.31,0005.24,0004.68
2023-07-24 18:09:00,SystemResetWarning,0835.4,5.01,000.00,028.4,025.1,000.0,036.6,029.9,31.4,0000.0,0010.81,0005.35,0004.75
2023-07-24 18:10:00,SystemResetWarning,0835.5,5.00,000.00,028.4,025.5,000.0,036.6,029.9,33.1,0000.0,0012.27,0005.48,0004.84
2023-07-24 18:11:00,SystemResetWarning,0835.5,4.99,000.00,028.4,025.9,000.0,036.7,029.9,33.0,0000.0,0012.71,0005.58,0004.93
2023-07-24 18:12:00,SystemResetWarning,0835.5,5.00,000.00,028.4,026.3,000.0,036.7,030.0,32.9,0000.0,0012.84,0005.68,0005.01
2023-07-24 18:13:00,SystemResetWarning,0835.5,5.00,000.00,028.5,026.7,000.0,036.7,030.1,33.3,0000.0,0012.94,0005.80,0005.10
2023-07-24 18:14:00,SystemResetWarning,0835.5,5.01,000.00,028.5,027.0,000.0,036.8,030.2,34.9,0000.0,0012.69,0005.86,0005.17
2023-07-24 18:15:00,SystemResetWarning,0835.5,5.01,000.00,028.6,026.8,000.0,036.7,030.2,34.2,0000.0,0012.96,0005.91,0005.19
2023-07-24 18:16:00,SystemResetWarning,0835.5,4.98,000.00,028.6,025.4,000.0,036.7,030.1,34.4,0000.0,0014.33,0005.98,0005.20
2023-07-24 18:17:00,SystemResetWarning,0835.5,5.04,000.00,028.6,024.9,000.0,036.6,029.9,34.9,0000.0,0015.19,0006.04,0005.20
2023-07-24 18:18:00,SystemResetWarning,0835.5,4.97,000.00,028.6,025.2,000.0,036.6,029.9,34.5,0000.0,0014.71,0006.04,0005.21
2023-07-24 18:19:00,SystemResetWarning,0835.5,5.00,000.00,028.6,025.6,000.0,036.7,029.9,34.8,0000.0,0014.50,0006.01,0005.18
2023-07-24 18:20:00,SystemResetWarning,0835.5,5.03,000.00,028.8,026.1,000.0,036.7,030.1,34.6,0000.0,0014.34,0005.96,0005.13
2023-07-24 18:21:00,SystemResetWarning,0835.5,4.96,000.00,028.9,026.5,000.0,036.8,030.2,34.3,0000.0,0013.24,0005.87,0005.06
2023-07-24 18:22:00,SystemResetWarning,0835.5,5.05,000.00,029.1,026.9,000.0,036.8,030.4,33.5,0000.0,0012.57,0005.78,0005.02
2023-07-24 18:23:00,SystemResetWarning,0835.5,4.96,000.00,029.3,026.6,000.0,036.9,030.4,31.9,0000.0,0013.23,0005.74,0004.99
2023-07-24 18:24:00,SystemResetWarning,0835.5,5.01,000.00,029.3,025.2,000.0,036.8,030.2,31.9,0000.0,0014.59,0005.75,0004.96
2023-07-24 18:25:00,SystemResetWarning,0835.5,5.00,000.00,029.3,024.8,000.0,036.8,030.0,31.6,0000.0,0015.13,0005.74,0004.93
2023-07-24 18:26:00,SystemResetWarning,0835.5,5.00,000.00,029.3,025.1,000.0,036.9,029.9,32.0,0000.0,0014.63,0005.71,0004.93
2023-07-24 18:27:00,SystemResetWarning,0835.5,5.00,000.00,029.2,025.5,000.0,037.0,029.9,32.4,0000.0,0013.56,0005.69,0004.95
2023-07-24 18:28:00,SystemResetWarning,0835.5,4.99,000.00,029.2,025.9,000.0,037.0,030.0,31.7,0000.0,0013.04,0005.70,0004.99
2023-07-24 18:29:00,SystemResetWarning,0835.5,5.00,000.00,029.3,026.4,000.0,037.1,030.2,31.6,0000.0,0013.73,0005.74,0005.04
2023-07-24 18:30:00,SystemResetWarning,0835.5,5.00,000.00,029.3,026.8,000.0,037.2,030.3,31.7,0000.0,0015.11,0005.83,0005.10
2023-07-24 18:31:00,SystemResetWarning,0835.5,5.00,000.00,029.3,027.1,000.0,037.2,030.4,30.5,0000.0,0015.30,0005.91,0005.16
2023-07-24 18:32:00,SystemResetWarning,0835.5,4.98,000.00,029.3,026.1,000.0,037.1,030.3,29.4,0000.0,0015.70,0005.99,0005.23
2023-07-24 18:33:00,SystemResetWarning,0835.5,5.00,000.00,029.3,025.0,000.0,037.1,030.1,29.9,0000.0,0015.72,0006.04,0005.28
2023-07-24 18:34:00,SystemResetWarning,0835.5,5.01,000.00,029.2,025.0,000.0,037.1,030.0,30.7,0000.0,0015.49,0006.13,0005.35
2023-07-24 18:35:00,SystemResetWarning,0835.5,5.01,000.00,029.2,025.4,000.0,037.1,030.0,29.6,0000.0,0014.36,0006.17,0005.40
2023-07-24 18:36:00,SystemResetWarning,0835.5,4.99,000.00,029.1,025.8,000.0,037.2,030.0,29.3,0000.0,0013.80,0006.21,0005.44
2023-07-24 18:37:00,SystemResetWarning,0835.5,5.01,000.00,029.1,026.2,000.0,037.2,030.1,28.1,0000.0,0013.91,0006.29,0005.49
2023-07-24 18:38:00,SystemResetWarning,0835.5,4.99,000.00,029.2,026.6,000.0,037.2,030.3,28.0,0000.0,0014.87,0006.36,0005.52
2023-07-24 18:39:00,SystemResetWarning,0835.5,4.99,000.00,029.2,027.0,000.0,037.3,030.4,28.1,0000.0,0016.24,0006.41,0005.53
2023-07-24 18:40:00,SystemResetWarning,0835.7,5.00,000.00,029.2,027.3,000.0,037.3,030.5,27.9,0000.0,0015.82,0006.43,0005.53
2023-07-24 18:41:00,SystemResetWarning,0835.6,4.99,000.00,029.2,026.3,000.0,037.2,030.3,28.2,0000.0,0015.00,0006.43,0005.51
2023-07-24 18:42:00,SystemResetWarning,0835.5,5.01,000.00,029.2,025.1,000.0,037.1,030.1,28.3,0000.0,0015.33,0006.39,0005.50
2023-07-24 18:43:00,SystemResetWarning,0835.5,5.01,000.00,029.1,025.1,000.0,037.1,030.0,28.6,0000.0,0016.09,0006.38,0005.49
2023-07-24 18:44:00,SystemResetWarning,0835.5,5.01,000.00,029.0,025.4,000.0,037.1,030.0,28.2,0000.0,0017.04,0006.42,0005.48
2023-07-24 18:45:00,SystemResetWarning,0835.5,4.99,000.00,029.0,025.8,000.0,037.2,030.0,27.2,0000.0,0017.32,0006.41,0005.46
2023-07-24 18:46:00,SystemResetWarning,0835.5,5.00,000.00,029.0,026.2,000.0,037.2,030.2,27.0,0000.0,0017.09,0006.38,0005.43
2023-07-24 18:47:00,SystemResetWarning,0835.5,5.00,000.00,029.0,026.7,000.0,037.2,030.3,26.0,0000.0,0018.01,0006.32,0005.38
2023-07-24 18:48:00,SystemResetWarning,0835.5,5.00,000.00,029.1,027.0,000.0,037.2,030.4,25.7,0000.0,0019.38,0006.26,0005.34
2023-07-24 18:49:00,SystemResetWarning,0835.5,4.99,000.00,029.1,026.9,000.0,037.2,030.4,27.3,0000.0,0019.55,0006.20,0005.29
2023-07-24 18:50:00,SystemResetWarning,0835.5,4.99,000.00,029.1,025.6,000.0,037.1,030.3,27.2,0000.0,0017.88,0006.12,0005.25
2023-07-24 18:51:00,SystemResetWarning,0835.5,5.00,000.00,029.0,024.9,000.0,037.0,030.1,28.1,0000.0,0017.98,0006.06,0005.21
2023-07-24 18:52:00,SystemResetWarning,0835.5,5.01,000.00,028.9,025.2,000.0,037.0,030.0,28.4,0000.0,0018.99,0006.04,0005.18
2023-07-24 18:53:00,SystemResetWarning,0835.5,5.00,000.00,028.9,025.6,000.0,037.1,030.0,29.3,0000.0,0018.86,0006.04,0005.13
2023-07-24 18:54:00,SystemResetWarning,0835.5,4.99,000.00,028.9,026.0,000.0,037.1,030.1,29.7,0000.0,0019.64,0006.00,0005.07
2023-07-24 18:55:00,SystemResetWarning,0835.5,5.00,000.00,028.9,026.4,000.0,037.1,030.2,30.1,0000.0,0020.39,0005.97,0005.02
2023-07-24 18:56:00,SystemResetWarning,0835.5,5.00,000.00,028.9,026.8,000.0,037.1,030.3,30.4,0000.0,0020.43,0005.96,0004.99
2023-07-24 18:57:00,SystemResetWarning,0835.5,5.01,000.00,029.0,027.2,000.0,037.2,030.4,29.9,0000.0,0021.66,0005.92,0004.97
2023-07-24 18:58:00,SystemResetWarning,0835.5,4.99,000.00,029.0,026.4,000.0,037.1,030.4,28.0,0000.0,0021.40,0005.94,0004.97
2023-07-24 18:59:00,SystemResetWarning,0835.5,5.00,000.00,028.9,025.0,000.0,037.0,030.1,27.2,0000.0,0019.85,0005.98,0004.95
